GW1640 Weather Reports


time (UTC)temp
F
wind
direction
speed
knots
gust
knots
rain 1hr
in
rain 24hr
in
rain mn
in
humidity
%
barometer
mb
20260505101533 75 265 1.7 2.6 0.00 0.00 0.00 39 1005.6
20260505100528 75 5 3.5 8.7 0.00 0.00 0.00 39 1005.7
20260505095523 74 100 2.6 5.2 0.00 0.00 0.00 42 1005.8
20260505094517 74 9 2.6 7.0 0.00 0.00 0.00 40 1005.8
20260505093532 74 35 3.5 7.8 0.00 0.00 0.00 44 1006.1
20260505092528 74 62 3.5 6.1 0.00 0.00 0.00 47 1006.1
20260505091522 72 257 3.5 8.7 0.00 0.00 0.00 45 1006.2
20260505090517 72 21 2.6 5.2 0.00 0.00 0.00 46 1006.3
20260505085533 71 305 2.6 6.1 0.00 0.00 0.00 48 1006.3
20260505084528 71 289 3.5 7.0 0.00 0.00 0.00 49 1006.4
20260505083523 71 290 1.7 2.6 0.00 0.00 0.00 50 1006.5
20260505081533 70 254 3.5 6.1 0.00 0.00 0.00 51 1006.6
20260505080529 70 288 1.7 3.5 0.00 0.00 0.00 52 1006.7
20260505075525 69 279 0.9 2.6 0.00 0.00 0.00 54 1006.7
20260505074519 69 359 1.7 3.5 0.00 0.00 0.00 53 1006.9
20260505073534 69 58 0.0 0.9 0.00 0.00 0.00 57 1006.9
20260505072629 69 25 1.7 2.6 0.00 0.00 0.00 57 1006.9
20260505070518 67 62 0.9 2.6 0.00 0.00 0.00 62 1007.1
20260505065533 66 45 0.9 2.6 0.00 0.00 0.00 66 1007.2
20260505064528 65 44 1.7 2.6 0.00 0.00 0.00 68 1007.3
20260505063524 64 301 0.0 1.7 0.00 0.00 0.00 69 1007.4
20260505062519 62 285 0.0 0.9 0.00 0.00 0.00 72 1007.4
20260505061533 61 354 0.9 1.7 0.00 0.00 0.00 72 1007.4
20260505060629 60 23 0.9 1.7 0.00 0.00 0.00 77 1007.4
20260505055623 58 280 0.0 0.9 0.00 0.00 0.00 81 1007.4
20260505054638 56 282 0.9 2.6 0.00 0.00 0.00 83 1007.4
20260505053533 55 108 0.9 1.7 0.00 0.00 0.00 84 1007.6
20260505052528 54 0.0 0.0 0.00 0.00 0.00 85 1007.4
20260505051643 54 107 0.0 0.9 0.00 0.00 0.00 86 1007.6
20260505050518 53 0.0 0.0 0.00 0.00 0.00 87 1007.6
20260505041532 52 37 1.7 3.5 0.00 0.00 0.00 88 1007.6
20260505040626 51 250 2.6 3.5 0.00 0.00 0.00 88 1007.6
20260505035521 52 158 0.9 2.6 0.00 0.00 0.00 87 1007.4
20260505034516 52 81 0.9 0.9 0.00 0.00 0.00 87 1007.5
20260505033531 52 59 0.0 0.9 0.00 0.00 0.00 87 1007.6
20260505032526 52 78 1.7 2.6 0.00 0.00 0.00 89 1007.8
20260505031520 52 119 0.9 1.7 0.00 0.00 0.00 86 1007.9
20260505030516 52 125 0.9 1.7 0.00 0.00 0.00 87 1007.8
20260505025531 52 129 0.0 0.9 0.00 0.00 0.00 86 1007.9
20260505024525 52 129 0.9 0.9 0.00 0.00 0.00 86 1008.1
20260505023520 52 128 2.6 2.6 0.00 0.00 0.00 86 1008.1
20260505022536 52 137 1.7 2.6 0.00 0.00 0.00 85 1008.1
20260505021531 52 136 2.6 3.5 0.00 0.00 0.00 84 1008.2
20260505020525 53 0.0 0.0 0.00 0.00 0.00 85 1008.2
20260505015520 53 132 0.9 0.9 0.00 0.00 0.00 86 1008.1
20260505014516 53 133 0.0 0.9 0.00 0.00 0.00 85 1008.2
20260505013531 53 132 0.9 1.7 0.00 0.00 0.00 84 1008.2
20260505012526 53 131 0.9 1.7 0.00 0.00 0.00 84 1008.3
20260505011521 53 125 0.9 1.7 0.00 0.00 0.00 84 1008.3
20260505010516 53 125 0.9 1.7 0.00 0.00 0.00 83 1008.5
20260505005530 53 0.0 0.0 0.00 0.00 0.00 83 1008.5
20260505004526 53 126 0.0 0.9 0.00 0.00 0.00 82 1008.5
20260505003521 53 126 1.7 2.6 0.00 0.00 0.00 83 1008.6
20260505002516 53 26 0.9 1.7 0.00 0.00 0.00 82 1008.7
20260505001531 53 25 0.0 1.7 0.00 0.00 0.00 81 1008.8
20260505000526 53 349 1.7 2.6 0.00 0.00 0.00 81 1008.9
20260504235521 53 241 0.0 0.9 0.00 0.00 0.00 80 1008.8
20260504234516 54 240 0.9 0.9 0.00 0.00 0.00 79 1009.0
20260504233531 54 241 1.7 2.6 0.00 0.00 0.00 79 1009.0
20260504231520 55 239 0.9 1.7 0.00 0.00 0.00 74 1009.3
20260504230515 56 248 0.9 1.7 0.00 0.00 0.00 74 1009.5
20260504225531 58 224 1.7 2.6 0.00 0.00 0.00 71 1009.6
20260504224526 60 115 0.9 2.6 0.00 0.00 0.00 69 1009.7
20260504223521 59 29 1.7 5.2 0.00 0.00 0.00 71 1009.8
20260504222515 58 77 2.6 5.2 0.00 0.00 0.00 74 1009.8
20260504221530 57 115 6.1 8.7 0.00 0.00 0.00 75 1009.7
20260504220525 57 130 3.5 6.1 0.00 0.00 0.00 75 1009.7
20260504215520 57 123 5.2 7.8 0.00 0.00 0.00 75 1009.7
20260504214535 57 128 4.3 6.1 0.00 0.00 0.00 75 1009.7
20260504213530 57 122 3.5 6.1 0.00 0.00 0.00 77 1009.7
20260504212524 58 152 0.9 1.7 0.00 0.00 0.00 79 1009.8
20260504211520 58 0.0 0.0 0.00 0.00 0.00 77 1009.7
20260504210515 59 130 0.9 2.6 0.00 0.00 0.00 76 1009.8
20260504205530 60 63 0.9 1.7 0.00 0.00 0.00 74 1009.9
20260504204525 60 155 2.6 5.2 0.00 0.00 0.00 70 1010.1
20260504203520 60 77 3.5 5.2 0.00 0.00 0.00 70 1010.1
20260504202655 60 118 0.0 0.9 0.00 0.00 0.00 66 1010.3
20260504200526 60 123 1.7 1.7 0.00 0.00 0.00 65 1010.3
20260504195521 60 122 0.9 1.7 0.00 0.00 0.00 64 1010.1
20260504193651 61 115 1.7 2.6 0.00 0.00 0.00 61 1010.2
20260504192526 62 99 0.9 2.6 0.00 0.00 0.00 61 1010.2
20260504191520 63 113 0.9 1.7 0.00 0.00 0.00 57 1010.2
20260504190515 65 67 0.9 2.6 0.00 0.00 0.00 53 1010.2
20260504185531 64 292 0.0 0.9 0.00 0.00 0.00 53 1010.1
20260504184526 65 300 1.7 2.6 0.00 0.00 0.00 50 1009.9
20260504183521 66 313 0.9 2.6 0.00 0.00 0.00 47 1009.7
20260504182516 68 39 0.9 1.7 0.00 0.00 0.00 46 1009.6
20260504181552 70 48 0.0 1.7 0.00 0.00 0.00 43 1009.5
20260504180526 71 52 2.6 3.5 0.00 0.00 0.00 42 1009.5
20260504175521 73 28 2.6 5.2 0.00 0.00 0.00 38 1009.4
20260504174516 75 8 2.6 5.2 0.00 0.00 0.00 34 1009.4
20260504173530 76 1 1.7 2.6 0.00 0.00 0.00 33 1009.6
20260504172526 76 1 2.6 3.5 0.00 0.00 0.00 33 1009.6
20260504171520 76 23 2.6 3.5 0.00 0.00 0.00 32 1009.6
20260504170516 77 355 0.9 2.6 0.00 0.00 0.00 31 1009.7
20260504150535 77 284 4.3 7.0 0.00 0.00 0.00 31 1010.2
20260504140524 78 256 2.6 5.2 0.00 0.00 0.00 32 1010.6
20260504130533 79 326 3.5 7.0 0.00 0.00 0.00 31 1011.2